User: anonymous
Location: Oshawa
(43.9000°N, 78.8670°W)
Time: 09:33:12
(UTC-04:00)
Language:

Cosmos 1408 Rocket - Orbit

View from above orbital plane
View from above orbital plane
View from above satellite
View from above satellite

Ground track
Ground track

The orbit data is extracted from the following two-line orbital elements,

1 13553U 82092B   14260.08576066  .00000476  00000-0  54511-4 0    43
2 13553 082.5659 089.3412 0023187 121.1623 023.6341 14.83587030728126
Epoch (UTC): 17 September 2014 02:03:29
Eccentricity: 0.0023187
inclination: 82.5659°
perigee height: 602 km
apogee height: 634 km
right ascension of ascending node: 89.3412°
argument of perigee: 121.1623°
revolutions per day: 14.83587030
mean anomaly at epoch: 23.6341°
orbit number at epoch: 72812

The dashed part of the orbit path shows where the satellite is in the earth's shadow,  

DLR